Regional Weather Roundup
Issued by NWS Midland/Odessa, TX

Skip options and go directly to product.
Home | Oldest Version | Previous Version | Current Version | All | Text Only | Save Text | Print | Product List | Glossary Off

Skip product version selection by date and time.   

967
ASUS44 KMAF 031110
RWRMAF
MIDLAND AREA WEATHER ROUNDUP
NATIONAL WEATHER SERVICE MIDLAND TX
500 AM CST TUE MAR 03 2015

...IN SOUTHWEST TEXAS AND SOUTHEAST NEW MEXICO...

CITY           SKY/WX    TMP DP  RH WIND       PRES   REMARKS
ALPINE         MOCLDY    51  34  52 CALM      30.00R
ANDREWS        FOG       40  40 100 S10       29.91F VSB 1/2 WCI  33
ARTESIA        FOG       37  37 100 SE14      29.88F VSB 1   WCI  29
BIG SPRING     CLOUDY   N/A N/A N/A S7        29.95F
CARLSBAD       CLOUDY    39  37  92 SE9       29.89S FOG     WCI  33
DRYDEN           N/A     46  44  93 S3        29.96F
FORT STOCKTON  CLOUDY    34  34 100 S5        29.90F FOG     WCI  30
GUAD PASS      NOT AVBL
HOBBS          FOG       37  37 100 S6        29.91F VSB 1/2 WCI  33
MARFA          MOCLDY    43  36  75 N3        29.98S
MIDLAND AIRPK  CLOUDY    44  44 100 S12G17    29.93S FOG     WCI  38
MIDLAND INTL   FOG       43  42  97 S15       29.91F VSB 1/2 WCI  36
ODESSA         FOG       42  41  96 S16       29.92F VSB 1/4 WCI  34
PECOS          MOCLDY    38  36  94 CALM      29.93R
PRESIDIO       FAIR      52  40  64 MISG      29.91S
SEMINOLE       FOG       39  39 100 CALM      29.91F VSB 1/2
SNYDER         FOG       37  36  99 SW8       29.95S VSB 1/2 WCI  30
WINK           CLOUDY    42  38  85 SE9       29.91F WCI  37
$$
...OTHER STATIONS IN TEXAS...

CITY           SKY/WX    TMP DP  RH WIND       PRES   REMARKS
ABILENE        CLOUDY    42  39  89 S15       29.93F WCI  34
AMARILLO       MOCLDY    36  34  92 SW17      29.85R WCI  26
AUSTIN         FOG       42  42 100 NW3       30.04F VSB 1/2
BROWNSVILLE    FOG       57  56  96 CALM      30.00S VSB 1/2
CORPUS CHRISTI DRZL/FOG  54  54 100 NE7       29.99F VSB 1/2
DALLAS FTW     DRZL/FOG  40  40 100 SW5       30.03F VSB 1/2 WCI  37
DEL RIO        CLOUDY    48  46  93 SE10      29.98F
EL PASO        CLOUDY    54  45  71 S5        29.88S
HOUSTON INT    FOG       57  57 100 E7        30.04F VSB 1/8
LUBBOCK        CLOUDY    37  37 100 SW10      29.89S FOG     WCI  30
SAN ANGELO     CLOUDY    40  38  93 CALM      29.96F FOG
SAN ANTONIO    LGT RAIN  47  46  97 W6        30.02F VSB 1
WACO           LGT RAIN  40  39  97 NW6       30.07S VSB 1/2 WCI  36
WICHITA FALLS  NOT AVBL
$$
...OTHER LOCATIONS IN NEW MEXICO...

CITY           SKY/WX    TMP DP  RH WIND       PRES   REMARKS
ALAMAGORDO     CLOUDY    54  46  76 S7        29.89S
ALBUQUERQUE    CLOUDY    42  29  59 SW8       29.93S WCI  37
CANNON AFB     MOCLDY    34  33  96 W8        29.86R WCI  28
CLOVIS         MOCLDY    34  32  93 SW8       29.86F WCI  27
HOLLOMAN AFB   CLOUDY    54  46  74 CALM      29.87F
ROSWELL        FOG       36  35  96 S7        29.87F VSB 3/4 WCI  30
RUIDOSO        CLOUDY    45  36  70 SW20G33   29.90F WCI  37
SANTA FE       CLOUDY    34  30  85 SW6       29.90F WCI  29
TRUTH OR CONSE CLOUDY    48  40  73 N5        29.88F
TUCUMCARI      MOCLDY    37  34  89 S10       29.82F WCI  30
$$

USA.gov is the U.S. government's official web portal to all federal, state and local government web resources and services.